COSMOS 1244

Satellite information

Favourite Embed

Satellite Type and Status

PAYLOADIN ORBIT

Key statistics

Satellite COSMOS 1244 at a glance.

Uptime

16321

Days in orbit

Revolutions

≈ 13.8

Per day

Orbit

LEO

Low Earth Orbit

Inclination

82.9

Latest

Satellite identification and parameters

Extended collection of information and parameters for COSMOS 1244.

Object identification

Identified? True

Debris? False

Object name: COSMOS 1244

International designator: 1981-013A

Object number (NORAD): 12297

Object ID (CCSDS): 12297

Country: COMMONWEALTH OF INDEPENDENT STATES (CIS)

Current information (Y/N): Y

RCS size: LARGE

Orbital parameters

Period: 104.711 minutes

Inclination: 82.9488 deg

SMA: 7359.028 km

Apoapsis: 1003.946 km

Periapsis: 957.84 km

RAAN: 263.3998 deg

Eccentricy: 0.00313262

Argument of periapsis: 139.3923 deg

Mean anomaly: 280.7234 deg

Mean motion: 13.75219582 rev/day

Mean motion (dot): 0.0000008 rev/day2

B* drag term: 0.000067343005 1/REarth

Two-line elements (TLE)

Creation date: Oct. 20, 2025, 2:10 a.m.

Reference frame: TEME

Reference center: EARTH

Epoch: Oct. 19, 2025, 11:44 p.m. UTC

TLE line 0: 0 COSMOS 1244

TLE line 1: 1 12297U 81013A 25292.98899481 .00000080 00000-0 67343-4 0 9995

TLE line 2: 2 12297 82.9488 263.3998 0031326 139.3923 280.7234 13.75219582886255

Live tracking on map

Real-time ground track for satellite COSMOS 1244.

In-orbit conjunctions

A list of the most updated potential collisions computed for object COSMOS 1244.

Target Orbit TCA Probability of collision Miss distance Type
NIMBUS 2 DEB SSO 2025-04-21 21:41:52 0.0002855703 189.0 (m) DEBRIS
DELTA 1 DEB MEO 2025-03-07 04:14:33 0.0002457857 371.0 (m) DEBRIS
FENGYUN 1C DEB SSO 2024-11-07 14:27:27 0.001594344 123.0 (m) DEBRIS

Associated space launch

Navigation satellite providing location information for the Tsiklon-B navigation system

COSMOS 1244 was lifted into orbit during the mission ‘Kosmos-3M | Parus 26’, on board a Kosmos-3M space rocket.

The launch took place on Feb. 12, 1981, 6:21 p.m. from 132/1 (132L).

For more information about the launch, click the button.

Launch to space Kosmos-3M | Parus 26
Kosmos-3M | Parus 26

Agency: N/A

Status: Launch Successful

Launch date: Feb. 12, 1981, 6:21 p.m. UTC

Rocket: Kosmos-3M

Launch pad: 132/1 (132L)

Location: Plesetsk Cosmodrome, Russian Federation

...

Latest news about this satellite

There are no fresh news available about this satellite. Check back as we update our databases every day.


Newsletter sign-up

Weekly statistics, charts and insights to help you stay on top of the space industry.